SCP
-0 -0 -0 -0 -0 -0 -0 0 -0 0 0 0 0 0 0 0 0 0 0 1 1 1 1 1 1 2 2 3 3 2 2 2 2 1 2 2 1 1 0 0 1 2 2 1
0 0 0 0 0 -0 0 -0 0 0 0 0 0 -0 0 0 0 0 0 0 0 1 1 1 1 1 3 4 4 4 3 2 2 2 2 2 1 1 1 1 2 1 2 1
-0 -0 0 0 0 0 0 0 0 0 0 -0 0 -0 0 0 0 0 0 0 0 0 0 0 0 0 0 1 2 5 5 4 3 2 3 4 4 4 2 2 2 2 1 1
0 0 0 0 0 0 0 0 0 0 0 0 0 0 0 0 0 0 0 0 0 0 0 0 0 0 0 0 0 2 2 4 5 3 4 4 3 4 3 3 2 2 1 2
0 0 0 0 0 0 0 0 0 0 0 0 0 0 0 0 0 0 0 0 0 0 0 0 0 0 0 0 0 0 0 0 1 3 5 6 4 6 9 7 10 14 6 3
0 0 0 0 0 0 0 0 0 0 0 0 -0 0 0 0 0 0 0 0 0 0 0 0 0 0 0 0 0 0 0 0 0 0 1 1 1 5 4 5 9 10 5 5
0 0 0 0 0 0 0 0 0 0 0 0 0 0 0 0 0 0 0 0 0 0 0 0 0 0 0 0 0 0 0 0 0 0 0 0 0 0 0 0 1 1 2 2
0 0 0 0 0 0 0 0 0 0 0 0 0 0 0 0 0 0 0 0 0 0 0 0 0 0 0 0 0 0 0 0 0 0 0 0 0 0 0 1 1 1 1 0
0 0 0 0 0 0 0 0 0 0 0 0 0 0 0 0 0 0 0 0 0 0 0 0 0 0 0 0 0 0 0 0 0 0 0 0 0 0 0 0 0 0 0 0
0 0 0 0 0 0 0 0 0 0 0 0 0 0 0 0 0 0 0 0 0 0 -0 0 0 0 0 0 0 0 0 0 0 0 0 0 0 0 0 0 0 0 0 0
0 0 0 0 0 0 0 0 0 0 0 0 0 0 0 0 0 0 0 0 0 0 0 0 0 0 0 0 0 0 0 0 0 0 0 0 0 0 0 0 0 0 0 0
0 0 0 0 0 0 0 0 0 0 0 0 0 0 0 0 0 0 0 0 0 0 0 0 0 0 0 0 0 0 0 0 0 0 0 0 0 0 0 0 0 0 0 0
0 0 0 0 0 0 0 0 0 0 0 0 0 0 0 0 -0 0 0 0 0 0 0 0 0 0 0 0 0 0 0 0 0 0 0 0 0 0 0 0 0 0 0 0
0 0 0 0 0 0 0 0 0 0 0 0 0 0 0 0 0 0 0 0 0 0 0 0 0 0 0 0 0 0 -0 -0 -0 -0 -0 -0 -0 -0 -0 -0 -0 -0 0 0
0 0 0 0 0 0 0 0 0 0 0 0 0 0 0 0 0 0 0 0 0 0 0 0 0 0 0 0 0 0 0 0 0 0 -0 0 0 -0 -0 -0 -0 0 0 0
0 0 0 0 0 0 0 0 0 0 0 0 0 0 0 0 0 0 0 0 -0 0 0 0 0 0 0 0 0 0 0 0 0 0 0 0 -0 -0 -0 -0 -0 0 0 0
0 0 0 0 0 0 0 0 0 0 0 0 0 0 0 0 0 0 0 0 0 0 0 0 0 0 0 0 0 0 0 0 0 0 0 0 0 0 0 0 0 0 0 0
0 0 0 0 0 0 0 0 0 0 0 0 0 0 0 0 0 0 0 0 0 0 0 0 0 0 0 0 0 0 0 0 0 0 0 0 0 0 0 0 0 0 0 0
0 0 0 0 0 0 0 0 0 0 0 0 0 0 0 0 0 0 0 0 0 0 0 0 0 0 0 0 0 0 0 0 0 0 0 0 0 0 0 0 0 0 0 0
0 0 0 0 0 0 0 0 0 0 0 0 0 0 0 0 0 0 0 0 0 0 0 0 0 0 0 0 0 0 0 0 0 0 0 0 0 0 0 0 0 0 0 0
0 0 0 0 0 0 0 0 0 0 0 0 0 0 0 0 0 0 0 0 0 0 0 0 0 0 0 0 0 0 0 0 0 0 0 0 0 0 0 0 0 0 0 0
0 0 0 0 0 0 0 0 0 0 0 0 0 0 0 0 0 0 0 0 0 0 0 0 0 0 0 0 0 0 0 0 0 0 0 0 0 0 0 0 0 0 0 0
0 0 0 0 0 0 0 0 0 0 0 0 0 0 0 0 0 0 0 0 0 0 0 0 0 0 0 0 0 0 0 0 0 0 0 0 0 0 0 0 0 0 0 0
0 0 0 0 0 0 0 0 0 0 0 0 0 0 0 0 0 0 0 0 0 0 0 0 0 0 0 0 0 0 0 0 0 0 0 0 0 0 0 0 0 0 0 0
0 0 0 0 0 0 0 0 0 0 0 0 0 0 0 0 0 0 0 0 0 0 0 0 0 0 0 0 0 0 0 0 0 0 0 0 0 0 0 0 0 0 0 0
0 0 0 0 0 0 0 0 0 0 0 0 0 0 0 0 0 0 0 0 0 0 0 0 0 0 0 0 0 0 0 0 0 0 0 0 0 0 0 0 0 0 0 0
Wind_Speed_500mb
16 24 8 23 17 20 15 11 15 7 6 11 25 23 13 16 9 10 21 19 21 25 31 34 28 26 22 17 14 24 31 39 44 42 39 40 39 37 35 36 37 55 47 40
16 6 10 7 9 13 9 15 16 8 8 15 25 27 22 14 21 14 19 20 26 32 32 40 39 29 20 10 12 22 28 35 39 41 41 37 37 36 37 38 41 41 50 39
16 23 1 14 10 14 16 15 16 18 22 32 32 37 31 25 24 16 18 24 31 33 35 37 41 36 25 11 5 6 23 31 40 41 37 37 35 37 37 36 36 38 39 41
3 10 8 13 12 11 26 13 12 21 22 22 5 14 16 35 30 18 18 27 29 31 32 35 39 41 39 28 12 15 18 23 33 42 39 41 38 38 38 35 38 37 37 37
12 8 8 16 10 11 22 16 23 27 27 28 34 21 1 38 30 17 22 27 29 28 31 34 37 40 46 42 23 2 16 24 25 31 34 35 43 34 34 34 37 40 38 42
13 4 10 16 14 14 20 27 31 32 31 28 40 21 14 11 18 12 21 26 25 25 25 27 32 37 49 51 45 36 14 9 13 19 34 30 29 30 39 39 31 25 31 28
21 25 9 9 20 23 20 24 20 17 21 16 17 11 20 20 16 16 18 22 22 21 20 23 28 32 42 47 50 38 46 37 39 29 20 9 10 14 19 33 33 31 34 18
24 16 17 8 9 18 24 14 16 27 23 18 21 14 18 18 17 15 19 18 15 16 16 23 25 29 32 40 43 42 34 34 37 40 39 34 26 28 21 24 14 6 10 11
19 10 13 0 6 9 19 17 17 19 31 25 31 20 23 16 13 11 8 14 10 9 9 17 21 22 28 30 30 31 33 35 38 36 39 40 33 28 20 17 12 13 14 12
6 19 12 11 13 21 18 19 13 16 15 23 23 18 4 21 10 7 10 10 12 5 11 14 18 18 13 19 20 21 28 24 28 28 29 28 29 29 25 19 14 12 5 9
13 13 6 4 19 16 11 11 15 14 19 16 20 7 15 13 12 10 15 11 14 17 14 14 6 4 10 10 6 17 24 27 29 26 27 28 30 30 26 19 16 12 7 8
14 11 20 27 18 11 19 25 23 16 20 15 20 23 17 9 9 11 18 20 9 15 11 18 12 7 4 4 15 18 22 23 29 31 35 28 29 27 21 18 22 18 12 10
5 10 15 23 20 12 16 16 18 19 17 27 23 20 17 10 23 17 24 25 21 26 30 27 18 13 4 8 9 13 23 25 30 29 28 29 30 25 24 25 24 21 18 18
7 18 22 24 36 27 19 18 24 24 22 28 29 32 25 18 18 25 29 25 29 30 36 36 25 21 14 15 20 15 7 3 3 9 13 25 37 34 30 22 20 20 23 26
9 24 28 32 35 35 32 34 34 38 35 36 36 39 36 33 26 22 25 28 32 29 38 41 32 26 16 17 18 11 10 12 8 9 12 17 24 23 23 25 23 20 18 15
15 22 23 32 31 31 36 38 38 42 42 42 40 40 31 33 14 21 22 29 39 25 20 34 21 22 25 23 19 13 13 13 13 14 16 18 18 20 21 22 23 21 21 22
23 21 25 29 22 16 25 21 24 28 36 33 32 27 16 19 22 25 28 30 34 16 5 6 3 16 26 21 19 18 19 13 17 20 22 21 22 22 22 21 21 21 23 25
24 27 17 23 26 30 11 1 14 18 21 18 16 19 20 19 21 29 14 28 16 12 11 4 8 17 18 13 15 17 17 19 24 25 26 27 26 29 27 25 25 25 26 27
24 20 19 18 21 22 32 18 5 17 20 12 12 14 22 24 21 6 12 12 8 10 5 10 14 12 11 9 12 12 19 23 26 29 32 32 34 35 33 31 32 30 32 33
15 17 20 23 18 15 9 7 4 17 22 21 16 11 19 22 21 12 8 10 10 12 8 9 4 4 4 1 9 16 24 28 31 32 31 37 38 37 36 35 35 35 37 32
16 15 22 20 17 17 20 10 8 14 7 14 17 19 21 21 25 5 13 8 2 1 2 6 9 10 8 11 16 23 26 29 31 34 36 36 36 34 38 35 33 42 35 36
15 12 13 14 19 19 2 8 18 15 18 18 25 30 37 33 31 23 21 13 7 2 6 10 14 16 18 22 23 27 29 31 32 33 34 34 32 32 30 35 44 31 32 28
10 17 12 3 3 8 11 15 15 21 34 40 36 33 31 41 35 22 15 10 4 3 9 13 20 26 24 23 22 28 30 32 35 36 37 35 35 37 33 29 30 32 31 28
19 24 15 20 15 21 26 27 27 30 37 37 32 37 35 39 31 12 8 11 24 18 10 13 20 24 24 24 26 30 34 35 37 39 35 34 34 32 31 28 35 33 31 35
24 23 20 27 32 35 33 22 24 29 33 37 38 41 40 16 11 10 3 5 16 20 18 18 20 23 26 28 32 33 34 34 32 31 31 31 27 28 35 32 34 26 29 31
25 17 18 19 27 26 26 24 25 30 29 27 27 30 10 4 5 12 4 7 7 17 21 21 21 23 27 34 32 31 28 27 29 29 27 26 29 30 29 30 30 32 36 41
Wind_Direction_500mb
207 238 240 27 345 342 332 298 285 296 3 279 271 280 275 250 151 44 41 35 18 20 13 9 4 354 327 295 260 230 222 219 211 216 219 216 221 228 230 229 225 220 233 217
215 206 42 313 302 284 273 265 246 291 237 280 284 266 259 238 92 61 52 46 31 23 18 11 9 357 356 5 287 264 238 225 220 217 220 224 227 231 237 227 241 229 231 225
301 72 84 264 223 268 231 301 342 315 317 269 248 259 223 126 122 90 60 41 38 30 25 19 15 13 358 296 241 275 258 245 234 217 227 225 222 224 227 226 227 238 225 229
46 83 269 259 274 317 294 86 285 283 285 286 1 284 171 155 146 101 50 41 32 32 34 32 30 28 21 5 315 234 228 229 236 232 226 229 227 228 228 224 221 226 221 212
80 211 251 273 4 335 297 341 290 281 274 278 267 238 298 157 145 81 56 46 38 38 41 41 48 50 48 35 24 260 223 211 221 212 225 234 226 236 229 214 201 192 207 210
313 46 271 340 308 267 313 286 281 261 254 252 243 232 100 113 71 76 63 51 46 46 46 52 55 53 58 42 47 54 65 108 198 211 214 223 208 210 211 210 201 204 224 233
177 216 150 278 275 203 251 297 287 247 215 250 111 211 69 103 78 57 55 42 46 44 54 56 51 45 51 47 34 46 55 58 53 69 83 148 198 153 199 220 211 168 169 162
281 199 174 132 329 328 303 304 290 298 290 314 139 237 110 101 92 65 59 69 38 48 64 72 68 58 61 52 58 40 44 51 47 41 48 50 66 67 85 105 129 156 181 183
320 235 119 197 306 312 18 259 14 306 279 263 277 104 141 144 126 78 51 99 48 71 109 92 75 56 53 53 53 43 52 44 46 43 40 39 40 44 59 70 99 134 141 163
14 286 189 103 289 231 264 349 261 211 270 272 261 254 99 160 89 48 3 77 130 125 166 139 92 57 38 38 49 56 61 59 48 39 42 38 35 40 40 35 42 28 312 214
318 257 223 253 223 279 200 231 218 304 301 287 276 290 47 56 89 354 329 330 155 175 205 198 166 55 19 11 81 89 75 52 51 36 34 41 35 26 19 14 21 12 21 63
56 308 276 276 92 303 280 280 295 276 270 248 284 280 61 91 44 311 288 288 224 178 220 226 230 255 332 109 119 125 96 64 41 21 11 16 15 12 10 359 351 320 331 334
70 237 276 244 192 185 254 258 259 269 282 270 280 271 147 181 243 307 305 290 268 206 193 205 232 245 190 163 140 131 79 56 44 27 355 352 4 5 1 1 346 336 327 279
326 271 263 278 304 324 276 249 242 250 267 273 257 263 269 255 326 321 307 306 304 213 203 201 214 230 219 176 150 158 139 100 318 321 320 326 340 350 350 351 335 345 334 336
242 274 278 276 282 288 285 280 271 264 258 259 274 287 299 307 311 314 303 290 283 284 197 198 203 212 221 192 195 226 246 253 259 299 305 319 329 339 326 321 328 325 332 327
239 267 284 281 276 272 276 277 270 272 270 269 273 278 289 282 278 298 323 319 299 287 249 193 211 181 192 198 200 206 265 234 270 286 307 308 324 321 314 310 313 310 310 303
271 263 276 279 292 307 280 276 274 267 257 268 268 282 347 318 309 335 319 309 302 332 46 27 174 211 204 228 207 238 257 278 290 295 306 304 313 315 311 308 307 309 294 300
261 264 266 272 280 270 288 345 299 303 313 302 285 285 274 306 340 307 322 301 323 39 44 330 134 185 185 207 217 237 266 282 291 295 301 307 310 312 312 314 313 309 308 301
225 253 265 259 268 281 294 354 347 313 302 313 254 293 340 335 316 26 12 20 30 66 88 86 98 123 148 225 247 266 281 292 296 299 301 301 305 308 310 312 310 307 305 301
227 227 255 260 250 262 330 85 32 329 272 30 11 355 337 322 289 34 355 102 97 75 75 63 27 330 174 166 313 295 296 298 299 303 303 301 302 301 302 303 304 305 301 294
188 224 226 247 265 272 294 21 77 263 22 347 343 327 316 320 340 336 270 273 195 281 307 301 319 310 343 328 309 303 303 300 300 301 302 302 300 301 298 303 296 302 298 289
251 199 231 240 242 259 64 251 249 7 323 320 306 325 324 314 303 284 294 202 150 307 334 328 302 302 311 305 302 305 306 305 303 302 302 301 303 303 292 292 298 296 295 299
255 267 320 276 346 29 316 284 273 287 300 299 304 301 295 293 295 270 244 292 29 318 309 279 320 311 306 311 313 308 306 309 306 302 301 301 302 296 304 305 303 306 308 297
204 238 241 280 291 305 321 301 287 284 288 296 292 296 295 288 295 288 287 302 301 292 308 293 302 305 307 309 313 310 310 310 307 302 299 300 298 297 301 302 306 293 292 294
294 315 287 283 283 283 281 306 325 312 302 301 294 283 288 310 331 81 45 311 325 314 310 310 308 307 309 312 310 312 310 313 309 310 305 303 299 304 307 296 311 306 299 291
267 277 270 280 328 317 302 306 308 299 286 310 325 305 319 92 85 280 299 307 301 302 310 312 318 324 313 311 312 311 311 313 315 314 312 312 310 315 313 307 308 311 301 300
Wind_Speed_850mb
16 24 8 23 17 20 15 11 15 7 6 11 25 23 13 16 9 10 21 19 21 25 31 34 28 26 22 17 14 24 31 39 44 42 39 40 39 37 35 36 37 55 47 40
16 6 10 7 9 13 9 15 16 8 8 15 25 27 22 14 21 14 19 20 26 32 32 40 39 29 20 10 12 22 28 35 39 41 41 37 37 36 37 38 41 41 50 39
16 23 1 14 10 14 16 15 16 18 22 32 32 37 31 25 24 16 18 24 31 33 35 37 41 36 25 11 5 6 23 31 40 41 37 37 35 37 37 36 36 38 39 41
3 10 8 13 12 11 26 13 12 21 22 22 5 14 16 35 30 18 18 27 29 31 32 35 39 41 39 28 12 15 18 23 33 42 39 41 38 38 38 35 38 37 37 37
12 8 8 16 10 11 22 16 23 27 27 28 34 21 1 38 30 17 22 27 29 28 31 34 37 40 46 42 23 2 16 24 25 31 34 35 43 34 34 34 37 40 38 42
13 4 10 16 14 14 20 27 31 32 31 28 40 21 14 11 18 12 21 26 25 25 25 27 32 37 49 51 45 36 14 9 13 19 34 30 29 30 39 39 31 25 31 28
21 25 9 9 20 23 20 24 20 17 21 16 17 11 20 20 16 16 18 22 22 21 20 23 28 32 42 47 50 38 46 37 39 29 20 9 10 14 19 33 33 31 34 18
24 16 17 8 9 18 24 14 16 27 23 18 21 14 18 18 17 15 19 18 15 16 16 23 25 29 32 40 43 42 34 34 37 40 39 34 26 28 21 24 14 6 10 11
19 10 13 0 6 9 19 17 17 19 31 25 31 20 23 16 13 11 8 14 10 9 9 17 21 22 28 30 30 31 33 35 38 36 39 40 33 28 20 17 12 13 14 12
6 19 12 11 13 21 18 19 13 16 15 23 23 18 4 21 10 7 10 10 12 5 11 14 18 18 13 19 20 21 28 24 28 28 29 28 29 29 25 19 14 12 5 9
13 13 6 4 19 16 11 11 15 14 19 16 20 7 15 13 12 10 15 11 14 17 14 14 6 4 10 10 6 17 24 27 29 26 27 28 30 30 26 19 16 12 7 8
14 11 20 27 18 11 19 25 23 16 20 15 20 23 17 9 9 11 18 20 9 15 11 18 12 7 4 4 15 18 22 23 29 31 35 28 29 27 21 18 22 18 12 10
5 10 15 23 20 12 16 16 18 19 17 27 23 20 17 10 23 17 24 25 21 26 30 27 18 13 4 8 9 13 23 25 30 29 28 29 30 25 24 25 24 21 18 18
7 18 22 24 36 27 19 18 24 24 22 28 29 32 25 18 18 25 29 25 29 30 36 36 25 21 14 15 20 15 7 3 3 9 13 25 37 34 30 22 20 20 23 26
9 24 28 32 35 35 32 34 34 38 35 36 36 39 36 33 26 22 25 28 32 29 38 41 32 26 16 17 18 11 10 12 8 9 12 17 24 23 23 25 23 20 18 15
15 22 23 32 31 31 36 38 38 42 42 42 40 40 31 33 14 21 22 29 39 25 20 34 21 22 25 23 19 13 13 13 13 14 16 18 18 20 21 22 23 21 21 22
23 21 25 29 22 16 25 21 24 28 36 33 32 27 16 19 22 25 28 30 34 16 5 6 3 16 26 21 19 18 19 13 17 20 22 21 22 22 22 21 21 21 23 25
24 27 17 23 26 30 11 1 14 18 21 18 16 19 20 19 21 29 14 28 16 12 11 4 8 17 18 13 15 17 17 19 24 25 26 27 26 29 27 25 25 25 26 27
24 20 19 18 21 22 32 18 5 17 20 12 12 14 22 24 21 6 12 12 8 10 5 10 14 12 11 9 12 12 19 23 26 29 32 32 34 35 33 31 32 30 32 33
15 17 20 23 18 15 9 7 4 17 22 21 16 11 19 22 21 12 8 10 10 12 8 9 4 4 4 1 9 16 24 28 31 32 31 37 38 37 36 35 35 35 37 32
16 15 22 20 17 17 20 10 8 14 7 14 17 19 21 21 25 5 13 8 2 1 2 6 9 10 8 11 16 23 26 29 31 34 36 36 36 34 38 35 33 42 35 36
15 12 13 14 19 19 2 8 18 15 18 18 25 30 37 33 31 23 21 13 7 2 6 10 14 16 18 22 23 27 29 31 32 33 34 34 32 32 30 35 44 31 32 28
10 17 12 3 3 8 11 15 15 21 34 40 36 33 31 41 35 22 15 10 4 3 9 13 20 26 24 23 22 28 30 32 35 36 37 35 35 37 33 29 30 32 31 28
19 24 15 20 15 21 26 27 27 30 37 37 32 37 35 39 31 12 8 11 24 18 10 13 20 24 24 24 26 30 34 35 37 39 35 34 34 32 31 28 35 33 31 35
24 23 20 27 32 35 33 22 24 29 33 37 38 41 40 16 11 10 3 5 16 20 18 18 20 23 26 28 32 33 34 34 32 31 31 31 27 28 35 32 34 26 29 31
25 17 18 19 27 26 26 24 25 30 29 27 27 30 10 4 5 12 4 7 7 17 21 21 21 23 27 34 32 31 28 27 29 29 27 26 29 30 29 30 30 32 36 41
Wind_Direction_850mb
207 238 240 27 345 342 332 298 285 296 3 279 271 280 275 250 151 44 41 35 18 20 13 9 4 354 327 295 260 230 222 219 211 216 219 216 221 228 230 229 225 220 233 217
215 206 42 313 302 284 273 265 246 291 237 280 284 266 259 238 92 61 52 46 31 23 18 11 9 357 356 5 287 264 238 225 220 217 220 224 227 231 237 227 241 229 231 225
301 72 84 264 223 268 231 301 342 315 317 269 248 259 223 126 122 90 60 41 38 30 25 19 15 13 358 296 241 275 258 245 234 217 227 225 222 224 227 226 227 238 225 229
46 83 269 259 274 317 294 86 285 283 285 286 1 284 171 155 146 101 50 41 32 32 34 32 30 28 21 5 315 234 228 229 236 232 226 229 227 228 228 224 221 226 221 212
80 211 251 273 4 335 297 341 290 281 274 278 267 238 298 157 145 81 56 46 38 38 41 41 48 50 48 35 24 260 223 211 221 212 225 234 226 236 229 214 201 192 207 210
313 46 271 340 308 267 313 286 281 261 254 252 243 232 100 113 71 76 63 51 46 46 46 52 55 53 58 42 47 54 65 108 198 211 214 223 208 210 211 210 201 204 224 233
177 216 150 278 275 203 251 297 287 247 215 250 111 211 69 103 78 57 55 42 46 44 54 56 51 45 51 47 34 46 55 58 53 69 83 148 198 153 199 220 211 168 169 162
281 199 174 132 329 328 303 304 290 298 290 314 139 237 110 101 92 65 59 69 38 48 64 72 68 58 61 52 58 40 44 51 47 41 48 50 66 67 85 105 129 156 181 183
320 235 119 197 306 312 18 259 14 306 279 263 277 104 141 144 126 78 51 99 48 71 109 92 75 56 53 53 53 43 52 44 46 43 40 39 40 44 59 70 99 134 141 163
14 286 189 103 289 231 264 349 261 211 270 272 261 254 99 160 89 48 3 77 130 125 166 139 92 57 38 38 49 56 61 59 48 39 42 38 35 40 40 35 42 28 312 214
318 257 223 253 223 279 200 231 218 304 301 287 276 290 47 56 89 354 329 330 155 175 205 198 166 55 19 11 81 89 75 52 51 36 34 41 35 26 19 14 21 12 21 63
56 308 276 276 92 303 280 280 295 276 270 248 284 280 61 91 44 311 288 288 224 178 220 226 230 255 332 109 119 125 96 64 41 21 11 16 15 12 10 359 351 320 331 334
70 237 276 244 192 185 254 258 259 269 282 270 280 271 147 181 243 307 305 290 268 206 193 205 232 245 190 163 140 131 79 56 44 27 355 352 4 5 1 1 346 336 327 279
326 271 263 278 304 324 276 249 242 250 267 273 257 263 269 255 326 321 307 306 304 213 203 201 214 230 219 176 150 158 139 100 318 321 320 326 340 350 350 351 335 345 334 336
242 274 278 276 282 288 285 280 271 264 258 259 274 287 299 307 311 314 303 290 283 284 197 198 203 212 221 192 195 226 246 253 259 299 305 319 329 339 326 321 328 325 332 327
239 267 284 281 276 272 276 277 270 272 270 269 273 278 289 282 278 298 323 319 299 287 249 193 211 181 192 198 200 206 265 234 270 286 307 308 324 321 314 310 313 310 310 303
271 263 276 279 292 307 280 276 274 267 257 268 268 282 347 318 309 335 319 309 302 332 46 27 174 211 204 228 207 238 257 278 290 295 306 304 313 315 311 308 307 309 294 300
261 264 266 272 280 270 288 345 299 303 313 302 285 285 274 306 340 307 322 301 323 39 44 330 134 185 185 207 217 237 266 282 291 295 301 307 310 312 312 314 313 309 308 301
225 253 265 259 268 281 294 354 347 313 302 313 254 293 340 335 316 26 12 20 30 66 88 86 98 123 148 225 247 266 281 292 296 299 301 301 305 308 310 312 310 307 305 301
227 227 255 260 250 262 330 85 32 329 272 30 11 355 337 322 289 34 355 102 97 75 75 63 27 330 174 166 313 295 296 298 299 303 303 301 302 301 302 303 304 305 301 294
188 224 226 247 265 272 294 21 77 263 22 347 343 327 316 320 340 336 270 273 195 281 307 301 319 310 343 328 309 303 303 300 300 301 302 302 300 301 298 303 296 302 298 289
251 199 231 240 242 259 64 251 249 7 323 320 306 325 324 314 303 284 294 202 150 307 334 328 302 302 311 305 302 305 306 305 303 302 302 301 303 303 292 292 298 296 295 299
255 267 320 276 346 29 316 284 273 287 300 299 304 301 295 293 295 270 244 292 29 318 309 279 320 311 306 311 313 308 306 309 306 302 301 301 302 296 304 305 303 306 308 297
204 238 241 280 291 305 321 301 287 284 288 296 292 296 295 288 295 288 287 302 301 292 308 293 302 305 307 309 313 310 310 310 307 302 299 300 298 297 301 302 306 293 292 294
294 315 287 283 283 283 281 306 325 312 302 301 294 283 288 310 331 81 45 311 325 314 310 310 308 307 309 312 310 312 310 313 309 310 305 303 299 304 307 296 311 306 299 291
267 277 270 280 328 317 302 306 308 299 286 310 325 305 319 92 85 280 299 307 301 302 310 312 318 324 313 311 312 311 311 313 315 314 312 312 310 315 313 307 308 311 301 300